Time,TemperatureF,DewpointF,PressureIn,WindDirection,WindDirectionDegrees,WindSpeedMPH,WindSpeedGustMPH,Humidity,HourlyPrecipIn,Conditions,Clouds,dailyrainin,SoftwareType,DateUTC
2013-07-11 00:05:00,75.0,73.0,29.78,ENE,57,0.0,4.0,93,0.00,,,0.00,weatherlink.com 1.10,2013-07-11 04:05:00,
2013-07-11 00:20:00,74.8,73.0,29.78,WSW,237,0.0,2.0,93,0.00,,,0.00,weatherlink.com 1.10,2013-07-11 04:20:00,
2013-07-11 00:35:00,74.8,73.0,29.77,WSW,253,0.0,4.0,93,0.00,,,0.00,weatherlink.com 1.10,2013-07-11 04:35:00,
2013-07-11 00:50:00,74.6,73.0,29.77,WSW,244,0.0,4.0,93,0.00,,,0.00,weatherlink.com 1.10,2013-07-11 04:50:00,
2013-07-11 01:06:00,74.5,72.0,29.77,WSW,253,1.0,4.0,93,0.00,,,0.00,weatherlink.com 1.10,2013-07-11 05:06:00,
2013-07-11 01:21:00,74.4,72.0,29.77,WSW,240,0.0,1.0,93,0.00,,,0.00,weatherlink.com 1.10,2013-07-11 05:21:00,
2013-07-11 01:36:00,74.1,72.0,29.77,WSW,257,0.0,1.0,93,0.00,,,0.00,weatherlink.com 1.10,2013-07-11 05:36:00,
2013-07-11 01:51:00,74.0,72.0,29.76,East,96,0.0,1.0,93,0.00,,,0.00,weatherlink.com 1.10,2013-07-11 05:51:00,
2013-07-11 02:06:00,73.8,72.0,29.76,WNW,283,0.0,1.0,94,0.00,,,0.00,weatherlink.com 1.10,2013-07-11 06:06:00,
2013-07-11 02:21:00,73.6,72.0,29.76,West,277,0.0,2.0,94,0.00,,,0.00,weatherlink.com 1.10,2013-07-11 06:21:00,
2013-07-11 02:36:00,73.4,72.0,29.76,NNE,13,0.0,1.0,94,0.00,,,0.00,weatherlink.com 1.10,2013-07-11 06:36:00,
2013-07-11 02:51:00,73.2,71.0,29.77,WSW,246,0.0,2.0,94,0.00,,,0.00,weatherlink.com 1.10,2013-07-11 06:51:00,
2013-07-11 03:06:00,73.2,71.0,29.77,WSW,256,2.0,2.0,94,0.00,,,0.00,weatherlink.com 1.10,2013-07-11 07:06:00,
2013-07-11 03:21:00,73.0,71.0,29.76,SW,234,0.0,2.0,94,0.00,,,0.00,weatherlink.com 1.10,2013-07-11 07:21:00,
2013-07-11 03:36:00,72.9,71.0,29.76,SW,234,1.0,2.0,94,0.00,,,0.00,weatherlink.com 1.10,2013-07-11 07:36:00,
2013-07-11 03:51:00,72.9,71.0,29.76,SW,226,0.0,2.0,94,0.00,,,0.00,weatherlink.com 1.10,2013-07-11 07:51:00,
2013-07-11 04:06:00,72.8,71.0,29.77,SW,221,0.0,1.0,94,0.00,,,0.00,weatherlink.com 1.10,2013-07-11 08:06:00,
2013-07-11 04:21:00,72.7,71.0,29.77,East,87,0.0,1.0,94,0.00,,,0.00,weatherlink.com 1.10,2013-07-11 08:21:00,
2013-07-11 04:36:00,72.6,71.0,29.77,WSW,253,0.0,1.0,94,0.00,,,0.00,weatherlink.com 1.10,2013-07-11 08:36:00,
2013-07-11 04:51:00,72.5,71.0,29.78,WSW,244,0.0,1.0,95,0.00,,,0.00,weatherlink.com 1.10,2013-07-11 08:51:00,
2013-07-11 05:06:00,72.4,71.0,29.78,SW,226,0.0,1.0,95,0.00,,,0.00,weatherlink.com 1.10,2013-07-11 09:06:00,
2013-07-11 05:21:00,72.2,71.0,29.78,WSW,251,0.0,1.0,95,0.00,,,0.00,weatherlink.com 1.10,2013-07-11 09:21:00,
2013-07-11 05:36:00,72.0,71.0,29.79,WSW,251,0.0,0.0,95,0.00,,,0.00,weatherlink.com 1.10,2013-07-11 09:36:00,
2013-07-11 05:51:00,71.8,70.0,29.78,WSW,252,0.0,0.0,95,0.00,,,0.00,weatherlink.com 1.10,2013-07-11 09:51:00,
2013-07-11 06:06:00,71.9,71.0,29.79,WSW,252,0.0,0.0,95,0.00,,,0.00,weatherlink.com 1.10,2013-07-11 10:06:00,
2013-07-11 06:21:00,72.3,71.0,29.79,WSW,252,0.0,0.0,95,0.00,,,0.00,weatherlink.com 1.10,2013-07-11 10:21:00,
2013-07-11 06:36:00,72.9,72.0,29.79,SSE,167,0.0,1.0,96,0.00,,,0.00,weatherlink.com 1.10,2013-07-11 10:36:00,
2013-07-11 06:51:00,73.5,72.0,29.78,ESE,102,0.0,1.0,95,0.00,,,0.00,weatherlink.com 1.10,2013-07-11 10:51:00,
2013-07-11 07:06:00,74.2,72.0,29.79,SW,228,0.0,2.0,94,0.00,,,0.00,weatherlink.com 1.10,2013-07-11 11:06:00,
2013-07-11 07:21:00,75.3,73.0,29.80,West,275,4.0,4.0,92,0.00,,,0.00,weatherlink.com 1.10,2013-07-11 11:21:00,
2013-07-11 07:36:00,76.0,73.0,29.79,West,261,0.0,4.0,91,0.00,,,0.00,weatherlink.com 1.10,2013-07-11 11:36:00,
2013-07-11 07:51:00,76.4,73.0,29.79,West,271,0.0,1.0,90,0.00,,,0.00,weatherlink.com 1.10,2013-07-11 11:51:00,
2013-07-11 08:06:00,76.8,74.0,29.78,WSW,242,0.0,2.0,90,0.00,,,0.00,weatherlink.com 1.10,2013-07-11 12:06:00,
2013-07-11 08:21:00,76.8,73.0,29.79,West,263,0.0,2.0,89,0.00,,,0.00,weatherlink.com 1.10,2013-07-11 12:21:00,
2013-07-11 08:36:00,76.8,74.0,29.80,West,259,0.0,3.0,90,0.00,,,0.00,weatherlink.com 1.10,2013-07-11 12:36:00,
2013-07-11 08:51:00,77.1,74.0,29.80,West,269,2.0,4.0,89,0.00,,,0.00,weatherlink.com 1.10,2013-07-11 12:51:00,
2013-07-11 09:06:00,77.4,74.0,29.80,East,80,1.0,4.0,89,0.00,,,0.00,weatherlink.com 1.10,2013-07-11 13:06:00,
2013-07-11 09:51:00,75.1,71.0,29.82,SE,140,0.0,9.0,88,0.04,,,0.04,weatherlink.com 1.10,2013-07-11 13:51:00,
2013-07-11 10:21:00,73.5,71.0,29.82,SW,218,0.0,5.0,91,0.08,,,0.08,weatherlink.com 1.10,2013-07-11 14:21:00,
2013-07-11 10:36:00,73.5,71.0,29.83,WSW,257,0.0,1.0,92,0.08,,,0.10,weatherlink.com 1.10,2013-07-11 14:36:00,
2013-07-11 10:51:00,73.3,71.0,29.83,West,268,0.0,1.0,92,0.09,,,0.13,weatherlink.com 1.10,2013-07-11 14:51:00,
2013-07-11 11:06:00,73.3,71.0,29.83,West,278,1.0,3.0,93,0.08,,,0.15,weatherlink.com 1.10,2013-07-11 15:06:00,
2013-07-11 11:21:00,73.7,72.0,29.83,East,96,0.0,1.0,94,0.08,,,0.16,weatherlink.com 1.10,2013-07-11 15:21:00,
2013-07-11 11:36:00,74.5,72.0,29.83,East,99,0.0,2.0,93,0.06,,,0.16,weatherlink.com 1.10,2013-07-11 15:36:00,
2013-07-11 11:51:00,75.3,73.0,29.82,ESE,105,1.0,3.0,91,0.03,,,0.16,weatherlink.com 1.10,2013-07-11 15:51:00,
2013-07-11 12:06:00,76.3,73.0,29.82,SW,230,0.0,2.0,89,0.01,,,0.16,weatherlink.com 1.10,2013-07-11 16:06:00,
2013-07-11 12:21:00,77.0,72.0,29.82,WSW,250,1.0,4.0,85,0.00,,,0.16,weatherlink.com 1.10,2013-07-11 16:21:00,
2013-07-11 12:36:00,77.5,73.0,29.82,WNW,286,0.0,3.0,85,0.00,,,0.16,weatherlink.com 1.10,2013-07-11 16:36:00,
2013-07-11 12:51:00,78.1,73.0,29.82,WNW,292,2.0,4.0,84,0.00,,,0.16,weatherlink.com 1.10,2013-07-11 16:51:00,
2013-07-11 13:07:00,79.4,73.0,29.81,WSW,244,2.0,3.0,81,0.00,,,0.16,weatherlink.com 1.10,2013-07-11 17:07:00,
2013-07-11 13:22:00,80.3,74.0,29.81,WSW,252,0.0,7.0,80,0.00,,,0.16,weatherlink.com 1.10,2013-07-11 17:22:00,
2013-07-11 13:37:00,80.7,74.0,29.81,SE,125,1.0,4.0,79,0.00,,,0.16,weatherlink.com 1.10,2013-07-11 17:37:00,
2013-07-11 13:52:00,81.2,74.0,29.81,West,265,1.0,4.0,78,0.00,,,0.16,weatherlink.com 1.10,2013-07-11 17:52:00,
2013-07-11 14:07:00,81.4,72.0,29.82,SW,234,5.0,5.0,72,0.00,,,0.16,weatherlink.com 1.10,2013-07-11 18:07:00,
2013-07-11 14:22:00,81.7,73.0,29.81,East,82,0.0,4.0,75,0.00,,,0.16,weatherlink.com 1.10,2013-07-11 18:22:00,
2013-07-11 14:37:00,82.3,72.0,29.81,East,84,6.0,6.0,72,0.00,,,0.16,weatherlink.com 1.10,2013-07-11 18:37:00,
2013-07-11 14:52:00,82.0,72.0,29.81,West,261,2.0,4.0,72,0.00,,,0.16,weatherlink.com 1.10,2013-07-11 18:52:00,
2013-07-11 15:07:00,81.9,72.0,29.81,East,97,1.0,5.0,73,0.00,,,0.16,weatherlink.com 1.10,2013-07-11 19:07:00,
2013-07-11 15:37:00,81.9,73.0,29.81,NNE,28,0.0,6.0,74,0.00,,,0.16,weatherlink.com 1.10,2013-07-11 19:37:00,
2013-07-11 15:52:00,82.1,74.0,29.81,WSW,255,0.0,3.0,75,0.00,,,0.16,weatherlink.com 1.10,2013-07-11 19:52:00,
2013-07-11 16:07:00,81.6,73.0,29.81,NW,307,0.0,4.0,76,0.00,,,0.16,weatherlink.com 1.10,2013-07-11 20:07:00,
2013-07-11 16:37:00,81.4,74.0,29.81,WSW,240,0.0,2.0,77,0.00,,,0.16,weatherlink.com 1.10,2013-07-11 20:37:00,
2013-07-11 17:07:00,81.3,73.0,29.81,NW,313,0.0,4.0,77,0.00,,,0.16,weatherlink.com 1.10,2013-07-11 21:07:00,
2013-07-11 17:22:00,80.6,73.0,29.81,South,175,0.0,5.0,78,0.00,,,0.16,weatherlink.com 1.10,2013-07-11 21:22:00,
2013-07-11 17:37:00,80.8,74.0,29.81,WSW,253,0.0,2.0,79,0.00,,,0.16,weatherlink.com 1.10,2013-07-11 21:37:00,
2013-07-11 17:52:00,80.7,74.0,29.81,WSW,244,0.0,5.0,79,0.00,,,0.16,weatherlink.com 1.10,2013-07-11 21:52:00,
2013-07-11 18:07:00,80.2,72.0,29.82,SE,134,0.0,4.0,77,0.00,,,0.16,weatherlink.com 1.10,2013-07-11 22:07:00,
2013-07-11 18:22:00,80.6,73.0,29.82,West,265,0.0,3.0,77,0.00,,,0.16,weatherlink.com 1.10,2013-07-11 22:22:00,
2013-07-11 18:37:00,80.6,73.0,29.83,West,263,0.0,2.0,77,0.00,,,0.16,weatherlink.com 1.10,2013-07-11 22:37:00,
2013-07-11 18:52:00,80.4,72.0,29.83,SE,132,0.0,1.0,76,0.00,,,0.16,weatherlink.com 1.10,2013-07-11 22:52:00,
2013-07-11 19:07:00,79.4,73.0,29.84,ESE,114,2.0,3.0,80,0.00,,,0.16,weatherlink.com 1.10,2013-07-11 23:07:00,
2013-07-11 19:22:00,79.0,73.0,29.84,West,268,0.0,1.0,81,0.00,,,0.16,weatherlink.com 1.10,2013-07-11 23:22:00,
2013-07-11 19:37:00,78.8,73.0,29.85,West,264,0.0,1.0,83,0.00,,,0.16,weatherlink.com 1.10,2013-07-11 23:37:00,
2013-07-11 19:52:00,78.5,73.0,29.85,WSW,254,0.0,1.0,82,0.00,,,0.16,weatherlink.com 1.10,2013-07-11 23:52:00,
2013-07-11 20:07:00,78.3,71.0,29.86,WSW,256,0.0,0.0,77,0.00,,,0.16,weatherlink.com 1.10,2013-07-12 00:07:00,
2013-07-11 20:37:00,77.4,69.0,29.86,NNW,337,0.0,1.0,75,0.00,,,0.16,weatherlink.com 1.10,2013-07-12 00:37:00,
2013-07-11 21:07:00,76.5,69.0,29.88,SW,226,0.0,0.0,77,0.00,,,0.16,weatherlink.com 1.10,2013-07-12 01:07:00,
2013-07-11 21:22:00,76.0,69.0,29.88,SW,226,0.0,1.0,79,0.00,,,0.16,weatherlink.com 1.10,2013-07-12 01:22:00,
2013-07-11 21:37:00,75.8,69.0,29.89,East,98,0.0,1.0,80,0.00,,,0.16,weatherlink.com 1.10,2013-07-12 01:37:00,
2013-07-11 22:07:00,74.8,69.0,29.89,SW,221,0.0,1.0,83,0.00,,,0.16,weatherlink.com 1.10,2013-07-12 02:07:00,
2013-07-11 22:22:00,74.2,69.0,29.89,SW,221,0.0,0.0,84,0.00,,,0.16,weatherlink.com 1.10,2013-07-12 02:22:00,
2013-07-11 22:37:00,73.7,69.0,29.89,SW,221,0.0,1.0,86,0.00,,,0.16,weatherlink.com 1.10,2013-07-12 02:37:00,
2013-07-11 22:52:00,73.3,69.0,29.89,SW,221,0.0,0.0,87,0.00,,,0.16,weatherlink.com 1.10,2013-07-12 02:52:00,
2013-07-11 23:07:00,72.9,69.0,29.89,SW,221,0.0,0.0,88,0.00,,,0.16,weatherlink.com 1.10,2013-07-12 03:07:00,
2013-07-11 23:22:00,72.4,69.0,29.90,SW,221,0.0,0.0,89,0.00,,,0.16,weatherlink.com 1.10,2013-07-12 03:22:00,
2013-07-11 23:37:00,72.1,69.0,29.90,SW,221,0.0,0.0,89,0.00,,,0.16,weatherlink.com 1.10,2013-07-12 03:37:00,